Location: 81360 Arifat, France
(43.7204°N, 2.3408°E)
Time: 03:32:57
(UTC+01:00)

Tiros 1 - Visible Passes

Search period start: 05 December 2025 00:00
Search period end: 15 December 2025 00:00
Orbit: 619 x 650 km, 48.4° (Epoch: 04 December)

Date Brightness Start Highest point End Pass type
(mag) Time Alt. Az. Time Alt. Az. Time Alt. Az.
05 Dec 7.0 18:57:29 10° WNW 19:02:06 85° SSW 19:04:04 34° ESE visible
05 Dec 9.8 20:40:05 10° W 20:41:30 16° WSW 20:41:30 16° WSW visible
06 Dec 7.8 19:19:27 10° WNW 19:23:52 49° SSW 19:25:36 32° SSE visible
07 Dec 7.1 17:59:17 10° WNW 18:03:55 85° NNE 18:08:29 10° ESE visible
07 Dec 9.0 19:41:40 10° W 19:45:27 26° SW 19:47:21 20° S visible
08 Dec 7.7 18:21:11 10° WNW 18:25:43 58° SSW 18:30:12 10° SE visible
08 Dec 9.9 20:04:52 10° WSW 20:06:53 13° SW 20:08:53 10° SSW visible
09 Dec 8.9 18:43:17 10° W 18:47:21 31° SW 18:51:22 10° SSE visible
10 Dec 9.9 19:06:01 10° W 19:08:48 16° SW 19:11:35 10° S visible
11 Dec 8.7 17:44:57 10° WNW 17:49:13 38° SW 17:53:26 10° SSE visible
12 Dec 9.9 18:07:24 10° W 18:10:43 20° SW 18:14:01 10° S visible
